Location: Three Oaks Observatory
(31.1535°N, 83.5955°W)
Time: 20:04:55
(UTC-04:00)

ISS - Pass Details

Date: 22 February 2019
Orbit: 406 x 411 km, 51.6° (Epoch: 21 March)

Event Time Altitude Azimuth Distance (km) Brightness Sun altitude
Exits shadow 05:50:50 10° 195° (SSW) 1,447 -1.2 -17.4°
Maximum altitude 05:53:47 32° 130° (SE) 709 -2.1 -16.8°
Drops below altitude 10° 05:56:46 10° 64° (ENE) 1,460 0.0 -16.1°
Sets 05:59:00 0° 55° (NE) 2,338 0.9 -15.7°
